Find Kuiper-00186

NORAD ID: 67140 Int'l Des: 2025-301 Owner: KUIP Country: US Constellation: amazon-leo operational
LEOCIRCULAR

リアルタイム位置

3D地球を読み込み中...

Kuiper-00186について

説明を読み込み中...

次回通過

Passes for default location (London). Set your location on the main map for personalized predictions.

高度履歴

Loading altitude history...

軌道要素

1 67140U 25301H 26125.43814356 .00004077 00000-0 56349-3 0 9997
2 67140 51.9008 187.1817 0000463 81.8221 278.2794 14.79931291 21964
Epoch: May 5, 2026 • Age: 10 hours

現在のステータス

高度 629.6 km
速度 7.55 km/s
衛星直下点 6.36°N, 22.51°E
打ち上げ日 Dec 16, 2025
運用期間 0.3 years
タイプ internet

技術仕様

分類 Payload
質量 490.00 kg
乾燥質量 490.00 kg
総質量 490.00 kg
長さ 1.80 m
直径 0.70 m
スパン 5.00 m
形状 Box + 2 pan
製造者 KUIP
バスタイプ Kuiper
フェーズステータス In Orbit
所有者/国 KUIP/US

Most Searched